Wind_Speed
6 6 6 7 7 8 9 10 10 10 11 12 13 13 14 14 14 14 14 14 13 13 12 12 11 11 11 11 11 11 11 11 10 10 9 9 8 8 7 7 6 6 5
7 7 8 8 9 10 10 11 11 11 12 12 13 14 15 15 15 15 15 15 14 14 13 13 13 13 12 12 13 13 13 12 12 11 10 10 9 9 9 8 7 7 6
9 9 9 9 10 10 11 12 12 12 12 13 14 15 15 16 16 16 16 16 15 15 15 14 14 14 14 14 14 14 14 13 13 12 11 11 10 10 9 9 8 7 7
10 10 10 11 11 12 12 13 13 13 14 14 15 16 16 16 17 16 16 16 16 16 16 16 15 15 15 15 15 15 15 14 14 13 13 12 12 11 10 10 9 8 8
11 11 11 12 13 13 14 14 14 14 15 16 16 17 17 17 17 17 17 17 17 17 17 17 16 16 16 16 16 16 16 15 15 14 14 14 14 13 12 12 11 10 9
12 12 13 14 14 14 15 15 15 15 16 17 17 17 17 17 18 18 18 18 18 18 17 17 17 17 17 17 17 17 16 16 15 15 15 16 15 15 14 14 13 13 11
14 14 15 15 15 15 15 15 15 16 17 18 18 18 18 18 18 18 18 18 18 18 18 17 17 17 18 18 18 18 18 18 17 17 17 17 17 17 16 16 15 14 14
15 15 16 16 16 16 16 16 16 17 18 19 19 19 19 18 18 19 19 19 19 19 18 18 18 18 18 19 19 19 19 19 19 19 19 18 18 18 18 18 17 17 16
16 16 17 17 17 17 17 17 18 18 19 19 19 19 19 19 18 19 19 20 20 20 19 19 19 19 19 20 20 20 20 20 20 20 20 20 20 19 18 19 19 19 18
16 17 17 17 17 18 18 18 18 18 18 19 19 19 19 19 19 19 19 20 20 20 20 20 19 20 21 21 21 21 21 21 21 21 20 20 21 21 20 20 20 20 19
17 17 18 18 18 18 18 18 18 18 18 18 19 19 19 20 20 20 21 21 21 21 21 20 20 20 21 22 22 22 22 22 22 22 21 21 21 21 21 21 22 20 19
17 18 19 18 18 17 18 18 18 18 18 18 19 20 21 22 22 22 22 22 22 22 22 22 22 22 22 23 23 23 24 24 24 23 23 23 22 22 22 22 22 22 21
17 18 17 17 17 17 18 18 18 19 19 19 20 21 21 22 22 22 23 23 23 24 24 24 23 23 23 24 24 25 25 26 25 24 24 24 23 23 23 23 23 23 23
18 18 17 17 18 18 19 18 19 19 19 20 21 21 21 21 22 23 24 25 25 25 25 25 25 25 24 25 25 25 26 27 27 26 26 25 25 24 24 24 23 23 23
17 17 17 17 18 18 19 19 19 20 20 20 21 21 22 23 23 24 24 25 26 26 27 27 26 26 26 25 26 26 26 26 27 27 27 27 26 26 25 25 24 24 24
19 18 19 19 18 18 19 19 19 20 21 22 23 23 24 25 25 25 25 26 27 28 29 28 28 28 28 27 28 27 26 27 27 27 28 28 28 27 26 25 24 25 25
19 19 18 18 18 18 19 20 21 22 23 23 24 25 25 26 26 26 27 27 28 29 29 29 29 29 28 28 28 28 27 28 28 28 28 28 27 27 26 25 25 25 25
19 18 18 18 18 19 20 20 22 23 23 24 25 26 26 27 27 27 28 28 29 30 30 30 30 29 29 28 28 28 28 28 28 28 27 27 27 27 27 27 26 25 25
19 19 18 19 19 20 21 21 22 24 24 25 25 26 26 27 28 28 28 29 30 30 30 30 30 30 29 29 29 29 28 28 28 28 28 27 27 27 27 27 27 26 25
20 20 20 20 20 20 21 22 23 24 25 26 26 26 27 28 29 28 28 28 28 28 28 29 30 30 30 29 29 29 29 29 29 29 29 29 27 26 26 27 27 27 26
21 21 19 19 20 21 21 22 24 25 26 27 27 27 27 28 29 28 28 28 29 29 28 28 28 29 30 30 29 30 30 30 29 29 29 29 28 27 27 27 27 27 27
18 18 18 18 19 21 22 23 24 25 27 28 28 28 27 27 28 28 28 30 30 29 28 29 29 29 29 30 29 29 29 28 29 28 28 28 28 29 28 27 27 26 26
18 18 19 19 20 21 22 23 25 26 27 27 28 27 27 28 28 29 29 30 30 29 29 29 29 29 29 29 29 29 29 28 28 28 27 27 27 28 28 26 26 26 26
19 21 20 20 20 21 22 24 25 25 26 27 28 29 29 29 28 29 30 30 28 28 28 28 28 28 27 27 27 27 27 27 26 27 27 27 27 28 27 26 26 26 26
19 20 20 20 20 21 23 24 25 25 26 27 28 28 28 27 28 28 29 28 28 27 27 27 26 26 26 25 26 26 26 25 25 26 27 27 27 28 28 27 26 26 26
20 20 20 20 21 22 22 23 24 25 25 26 26 26 26 27 27 27 26 26 26 25 25 25 25 24 24 24 24 24 25 25 25 25 25 26 26 27 27 27 26 26 27
Wind_Direction
308 312 313 310 305 301 300 300 299 300 302 304 305 305 305 303 302 301 301 300 299 298 297 295 293 291 289 288 288 286 284 283 281 280 278 276 273 269 265 264 265 265 267
301 305 303 303 301 298 298 299 298 298 298 300 302 302 302 302 300 299 298 297 295 294 293 291 290 288 287 287 286 285 283 282 281 279 278 276 273 270 268 267 267 269 270
296 299 296 297 299 299 298 298 298 297 297 298 298 299 299 299 298 296 295 294 292 290 288 287 286 285 284 283 283 283 283 281 281 278 277 276 274 270 267 265 266 268 269
296 296 295 296 298 299 298 298 297 296 297 296 296 297 297 297 296 294 292 291 290 288 286 284 283 282 282 281 280 281 281 279 279 278 276 275 275 273 267 263 263 263 264
296 297 296 296 298 300 299 296 295 294 294 294 295 296 295 294 292 291 289 288 287 286 284 283 281 280 279 279 279 280 279 278 278 277 277 274 272 271 268 264 264 262 262
292 294 295 296 296 298 298 296 294 294 295 294 294 294 293 292 292 289 286 287 286 284 283 281 280 278 277 277 277 278 278 277 276 275 275 273 270 269 265 263 263 262 261
290 291 295 296 295 296 295 294 293 293 295 294 295 295 293 292 291 288 286 286 285 285 284 282 281 279 278 278 277 276 274 275 275 273 273 272 271 268 264 263 263 264 262
290 292 294 295 297 297 295 293 292 292 294 294 295 295 293 292 290 287 286 286 286 284 282 282 281 279 277 277 277 276 274 274 273 273 272 272 271 268 265 265 264 264 263
290 292 293 294 296 295 294 293 292 293 292 293 293 293 293 291 291 289 287 286 285 283 282 281 280 279 277 276 276 274 273 273 273 274 272 270 270 268 267 265 263 261 260
289 291 294 293 294 296 295 293 293 293 292 291 292 293 292 292 292 289 287 286 285 285 284 282 281 281 280 278 276 274 274 273 273 273 270 268 269 268 267 265 264 263 260
285 287 290 292 294 293 293 292 293 294 294 294 295 293 290 290 290 289 289 287 286 285 284 282 281 281 281 278 276 275 274 273 273 273 271 268 266 267 269 267 265 262 261
285 288 290 295 296 294 293 292 292 292 292 293 294 292 290 290 289 288 288 287 286 285 283 283 281 280 279 277 275 274 274 273 272 271 271 269 267 267 268 267 266 263 261
284 290 295 298 297 293 290 290 289 289 289 290 293 292 291 292 291 289 289 288 286 285 284 282 280 279 278 276 274 273 273 271 270 268 268 267 268 267 266 266 265 264 263
285 289 293 297 295 291 287 286 287 288 291 292 293 293 293 293 293 291 289 289 287 285 284 282 280 278 278 276 274 272 271 270 268 266 266 266 267 267 266 266 265 263 261
287 286 287 292 293 291 289 287 289 293 293 293 294 294 294 294 294 294 293 292 290 287 284 281 279 278 278 277 274 272 270 269 266 266 265 265 265 266 266 264 264 262 260
286 286 286 291 292 290 290 290 291 293 294 295 295 295 295 294 294 294 294 294 291 289 286 283 281 278 277 276 274 272 270 269 267 267 266 265 264 265 265 262 263 261 259
284 285 286 289 291 291 293 294 294 295 296 297 298 297 297 298 298 296 294 293 292 290 288 285 281 278 277 275 274 271 268 268 266 265 266 266 264 264 263 260 260 260 257
284 284 287 290 293 295 296 297 299 299 300 300 300 298 298 300 300 299 296 295 295 293 289 285 281 279 277 275 273 271 268 267 265 264 264 264 264 264 262 261 259 260 257
283 282 284 291 294 297 298 300 300 300 301 302 302 300 301 302 302 302 299 297 297 295 291 286 283 280 277 275 272 271 270 267 266 263 262 262 263 262 260 260 258 257 255
284 286 288 290 293 295 298 299 300 302 303 304 302 300 302 303 303 303 301 299 299 297 293 289 285 281 279 276 272 272 271 270 267 263 263 262 262 261 259 258 257 255 254
284 286 287 290 292 294 297 300 301 302 303 304 302 302 303 304 304 304 303 302 300 297 293 291 288 283 281 278 276 273 271 269 266 264 263 262 261 260 259 257 255 254 252
286 283 286 289 292 297 300 302 302 303 303 303 303 302 303 304 304 305 303 301 298 295 293 291 289 285 283 279 277 275 272 269 266 265 263 261 259 258 257 255 253 252 251
290 289 287 290 292 295 299 301 303 304 304 305 305 305 304 303 304 303 302 300 298 295 294 292 290 287 285 282 278 275 272 269 267 266 263 260 259 256 254 253 252 252 253
288 290 290 291 293 296 299 302 304 306 305 306 306 305 305 304 304 303 302 300 298 297 295 294 292 288 286 282 279 276 272 268 266 264 263 260 258 256 255 254 252 250 250
290 291 290 290 294 297 301 303 306 308 307 307 307 307 305 304 304 305 303 302 302 300 298 295 293 290 288 285 280 277 273 270 268 266 262 260 258 257 255 254 251 249 249
293 291 290 292 298 300 302 304 307 308 309 309 308 307 306 306 307 308 307 307 306 303 300 297 294 292 289 287 284 279 274 271 269 267 262 258 256 256 255 254 251 250 248
Height
5913 5912 5911 5911 5910 5910 5909 5908 5907 5907 5906 5905 5904 5903 5902 5900 5899 5898 5896 5895 5894 5892 5891 5890 5889 5888 5887 5886 5885 5884 5883 5882 5881 5881 5880 5879 5878 5878 5877 5876 5875 5875 5874
5912 5911 5910 5910 5909 5909 5908 5907 5906 5905 5905 5904 5903 5901 5900 5899 5898 5896 5895 5894 5892 5891 5890 5888 5887 5886 5885 5884 5883 5882 5881 5880 5879 5878 5878 5877 5876 5876 5875 5874 5873 5873 5873
5910 5910 5909 5908 5908 5907 5906 5906 5905 5904 5903 5902 5901 5900 5899 5897 5896 5895 5893 5892 5890 5889 5888 5886 5885 5884 5883 5881 5880 5879 5879 5878 5877 5876 5875 5875 5874 5873 5873 5872 5872 5871 5871
5909 5908 5908 5907 5906 5906 5905 5904 5903 5902 5901 5900 5899 5898 5897 5895 5894 5893 5891 5890 5888 5887 5885 5884 5883 5882 5880 5879 5878 5877 5876 5875 5874 5874 5873 5873 5872 5872 5871 5871 5870 5870 5869
5907 5907 5906 5906 5905 5904 5903 5902 5901 5900 5899 5898 5897 5896 5894 5893 5892 5890 5889 5887 5886 5884 5883 5881 5880 5879 5878 5877 5875 5874 5874 5873 5872 5871 5871 5870 5870 5869 5869 5869 5868 5868 5868
5906 5905 5905 5904 5903 5902 5901 5900 5899 5898 5897 5896 5894 5893 5892 5890 5889 5888 5886 5885 5883 5882 5880 5879 5878 5877 5875 5874 5873 5872 5871 5870 5869 5869 5868 5868 5867 5867 5867 5866 5866 5866 5866
5904 5903 5902 5902 5901 5900 5899 5898 5897 5895 5894 5893 5892 5890 5889 5888 5886 5885 5883 5882 5880 5879 5878 5876 5875 5874 5872 5871 5870 5869 5868 5867 5867 5866 5865 5865 5864 5864 5864 5864 5864 5864 5863
5901 5901 5900 5899 5898 5897 5896 5895 5894 5892 5891 5890 5889 5887 5886 5884 5883 5881 5880 5878 5877 5876 5874 5873 5872 5870 5869 5868 5867 5866 5865 5864 5863 5863 5862 5862 5861 5861 5861 5861 5860 5860 5860
5899 5898 5897 5896 5895 5894 5893 5892 5890 5889 5888 5886 5885 5884 5882 5881 5879 5878 5876 5875 5873 5872 5870 5869 5868 5866 5865 5864 5863 5862 5861 5860 5859 5859 5859 5858 5857 5857 5857 5857 5857 5856 5856
5896 5895 5894 5893 5892 5891 5890 5888 5887 5886 5885 5883 5881 5880 5878 5877 5875 5874 5872 5871 5869 5868 5866 5865 5864 5862 5861 5860 5859 5858 5857 5856 5855 5854 5854 5854 5853 5853 5853 5852 5852 5853 5853
5893 5892 5891 5890 5889 5887 5886 5885 5884 5883 5881 5879 5878 5876 5875 5873 5871 5869 5868 5866 5865 5863 5861 5860 5859 5858 5856 5855 5854 5853 5852 5851 5850 5850 5849 5849 5848 5848 5848 5848 5848 5848 5848
5890 5889 5888 5887 5886 5884 5883 5882 5881 5879 5877 5876 5874 5872 5871 5869 5867 5865 5863 5862 5860 5858 5857 5856 5854 5853 5851 5850 5849 5848 5847 5846 5845 5845 5844 5844 5844 5844 5843 5843 5843 5843 5844
5886 5885 5884 5884 5883 5881 5880 5878 5877 5875 5873 5871 5870 5868 5866 5864 5862 5860 5859 5857 5855 5853 5851 5850 5848 5847 5846 5844 5843 5842 5841 5840 5840 5839 5839 5838 5838 5838 5838 5838 5838 5838 5838
5882 5882 5881 5880 5879 5877 5876 5874 5873 5871 5869 5867 5865 5863 5861 5859 5857 5855 5853 5851 5849 5847 5846 5844 5842 5841 5839 5838 5837 5836 5835 5834 5834 5833 5833 5833 5832 5832 5832 5832 5832 5832 5833
5878 5877 5877 5876 5875 5873 5872 5870 5868 5867 5865 5863 5861 5858 5856 5854 5852 5850 5848 5845 5843 5841 5839 5837 5836 5834 5833 5831 5830 5829 5828 5827 5827 5827 5826 5826 5826 5826 5826 5826 5826 5826 5827
5873 5873 5873 5871 5870 5869 5868 5866 5864 5862 5860 5858 5856 5853 5851 5848 5846 5844 5841 5839 5836 5834 5831 5829 5828 5826 5825 5824 5823 5822 5821 5821 5820 5820 5820 5819 5819 5819 5819 5820 5820 5820 5820
5868 5868 5867 5866 5866 5864 5863 5861 5860 5857 5855 5853 5850 5847 5845 5842 5839 5837 5835 5832 5829 5826 5824 5821 5819 5818 5817 5815 5815 5814 5814 5813 5813 5812 5812 5812 5812 5813 5813 5813 5813 5813 5814
5864 5863 5862 5862 5861 5859 5858 5856 5854 5852 5850 5847 5844 5841 5838 5836 5833 5830 5828 5825 5821 5818 5815 5813 5811 5809 5808 5807 5806 5806 5805 5805 5805 5805 5805 5805 5806 5806 5806 5806 5806 5807 5808
5859 5859 5858 5857 5856 5854 5853 5850 5848 5846 5844 5841 5838 5835 5832 5829 5826 5823 5821 5817 5814 5811 5808 5805 5803 5801 5800 5799 5798 5797 5797 5797 5797 5797 5797 5798 5798 5798 5798 5799 5800 5800 5801
5854 5853 5853 5852 5851 5849 5848 5846 5843 5841 5838 5835 5832 5829 5826 5823 5820 5816 5813 5810 5806 5803 5800 5797 5795 5793 5792 5790 5789 5789 5788 5788 5788 5789 5789 5790 5790 5790 5791 5791 5792 5793 5794
5849 5849 5848 5847 5846 5844 5842 5840 5838 5835 5832 5829 5826 5822 5819 5816 5813 5809 5806 5802 5799 5796 5792 5790 5787 5785 5783 5782 5781 5780 5780 5780 5780 5780 5781 5782 5782 5783 5783 5784 5785 5786 5787
5844 5842 5842 5842 5840 5839 5837 5835 5832 5829 5826 5823 5819 5816 5813 5809 5806 5802 5799 5795 5791 5788 5785 5782 5780 5777 5775 5774 5773 5772 5772 5772 5771 5772 5772 5773 5774 5775 5776 5776 5777 5779 5780
5840 5839 5838 5837 5836 5834 5832 5830 5827 5823 5820 5816 5813 5809 5806 5802 5798 5795 5792 5788 5784 5781 5778 5775 5772 5769 5767 5765 5764 5763 5763 5763 5763 5763 5764 5765 5765 5766 5768 5769 5770 5771 5773
5836 5835 5833 5833 5831 5829 5827 5824 5821 5817 5814 5810 5807 5803 5799 5795 5792 5788 5784 5780 5777 5773 5770 5767 5764 5761 5759 5757 5755 5755 5755 5755 5755 5755 5756 5756 5757 5758 5760 5761 5762 5764 5765
5831 5830 5829 5827 5825 5823 5821 5818 5815 5811 5808 5804 5801 5797 5792 5789 5785 5781 5777 5773 5769 5766 5762 5759 5756 5754 5752 5750 5748 5747 5746 5746 5746 5747 5748 5748 5749 5750 5752 5753 5755 5756 5758
5827 5825 5824 5822 5820 5818 5815 5812 5809 5806 5802 5799 5795 5791 5787 5783 5779 5774 5770 5766 5762 5759 5756 5752 5749 5747 5744 5742 5740 5739 5739 5738 5738 5738 5739 5740 5741 5743 5744 5746 5747 5749 5750